User: anonymous   Login
Location: Caltech
(34.1382°N, 118.1253°W)
Time: 16:26:26
(UTC-07:00)
Language:

SL-16 R/B - Orbit

View from above orbital plane
View from above orbital plane
View from above satellite
View from above satellite

Ground track
Ground track

The orbit data is extracted from the following two-line orbital elements,

1 31793U 07029B   15245.67215162 -.00000205 +00000-0 -82025-4 0  9998
2 31793 070.9778 321.8299 0002350 281.8611 185.6233 14.14340666422319
Epoch (UTC): 02 September 2015 16:07:53
Eccentricity: 0.0002350
inclination: 70.9778°
perigee height: 843 km
apogee height: 846 km
right ascension of ascending node: 321.8299°
argument of perigee: 281.8611°
revolutions per day: 14.14340666
mean anomaly at epoch: 185.6233°
orbit number at epoch: 42231

The dashed part of the orbit path shows where the satellite is in the earth's shadow,  

DLR